If you wish to contribute or participate in the discussions about articles you are invited to join SKYbrary as a registered user

 Actions

Albury Airport

From SKYbrary Wiki

YMAY
Airport
ICAO: YMAY – IATA: ABX
Summary
Name Albury Airport
Region Asia and Pacific
Territory Australia AU.gif
Location , New South Wales
Serving Albury
Elevation 164.287 m <br />539 ft <br />539 ft164.287 m <br />
Type medium airport
Coordinates 36° 4' 4.01" S, 146° 57' 29.02" E
Runways
Designator Length Width Surface ROPS
7/25 1900 m6,233.596 ft <br /> 30 m98.425 ft <br /> ASP /


METAR
Observation YMAY 150100Z AUTO 00000KT 9999 // OVC003 09/09 Q1018
Station Albury Airport
Date/Time 15 June 2021 01:00:00
Wind direction
Wind speed 00 kts
Lowest cloud amount overcast
Temperature 9°C
Dew point 9°C
Humidity 100%
QNH 1018 hPa
Weather condition n/a